time, beta470, beta532, beta650
yyyy/mm/dd HH:MM:SS.fff, counts, counts, counts
2023/07/02 01:00:01.179, 102, 115, 84
2023/07/02 01:00:02.315, 108, 113, 87
2023/07/02 01:00:03.435, 105, 149, 78
2023/07/02 01:00:04.571, 105, 111, 82
2023/07/02 01:00:05.707, 105, 114, 80
2023/07/02 01:00:06.827, 104, 116, 81
2023/07/02 01:00:07.963, 109, 109, 82
2023/07/02 01:00:09.083, 105, 110, 79
2023/07/02 01:00:10.218, 104, 105, 90
2023/07/02 01:00:11.354, 107, 109, 89
2023/07/02 01:00:12.475, 104, 107, 84
2023/07/02 01:00:13.611, 112, 114, 93
2023/07/02 01:00:14.731, 112, 113, 90
2023/07/02 01:00:15.867, 108, 120, 91
2023/07/02 01:00:17.002, 106, 258, 94
2023/07/02 01:00:18.122, 105, 111, 94
2023/07/02 01:00:19.258, 109, 110, 111
2023/07/02 01:00:20.394, 107, 114, 267
2023/07/02 01:00:21.514, 107, 112, 152
2023/07/02 01:00:22.650, 108, 113, 85
2023/07/02 01:00:23.770, 106, 113, 80
2023/07/02 01:00:24.906, 106, 107, 73
2023/07/02 01:00:26.042, 101, 106, 81
2023/07/02 01:00:27.162, 103, 109, 78
2023/07/02 01:00:28.298, 109, 107, 75
2023/07/02 01:00:29.418, 105, 113, 81
2023/07/02 01:00:30.554, 107, 110, 84
2023/07/02 01:00:31.689, 106, 111, 84
2023/07/02 01:00:32.809, 112, 112, 82
2023/07/02 01:00:33.945, 106, 110, 79
2023/07/02 01:00:35.065, 108, 109, 84
2023/07/02 01:00:36.201, 102, 119, 85
2023/07/02 01:00:37.320, 104, 115, 79
2023/07/02 01:00:38.457, 112, 116, 83
2023/07/02 01:00:39.593, 115, 112, 80
2023/07/02 01:00:40.713, 112, 137, 84
2023/07/02 01:00:41.849, 106, 115, 90
2023/07/02 01:00:42.985, 104, 110, 92
2023/07/02 01:00:44.105, 105, 111, 83
2023/07/02 01:00:45.241, 104, 113, 83
2023/07/02 01:00:46.361, 103, 112, 84
2023/07/02 01:00:47.497, 102, 114, 79
2023/07/02 01:00:48.632, 104, 112, 80
2023/07/02 01:00:49.752, 102, 111, 77
2023/07/02 01:00:50.888, 102, 111, 80
2023/07/02 01:00:52.008, 105, 113, 82
2023/07/02 01:00:53.144, 102, 109, 80
2023/07/02 01:00:54.280, 100, 116, 83
2023/07/02 01:00:55.400, 109, 113, 80
2023/07/02 01:00:56.536, 106, 115, 84
2023/07/02 01:00:57.656, 110, 114, 79
2023/07/02 01:00:58.792, 104, 117, 93
2023/07/02 01:00:59.928, 108, 113, 82
2023/07/02 01:01:01.047, 111, 115, 78
2023/07/02 01:01:02.184, 112, 111, 81
2023/07/02 01:01:03.304, 120, 125, 83
2023/07/02 01:01:04.440, 114, 113, 80
2023/07/02 01:01:05.576, 110, 111, 76
2023/07/02 01:01:06.696, 108, 113, 77
2023/07/02 01:01:07.831, 116, 124, 85
2023/07/02 01:01:08.951, 112, 124, 80
2023/07/02 01:01:10.087, 112, 193, 76
2023/07/02 01:01:11.223, 110, 121, 78
2023/07/02 01:01:12.343, 112, 119, 84
2023/07/02 01:01:13.479, 105, 118, 79
2023/07/02 01:01:14.599, 105, 114, 77
2023/07/02 01:01:15.735, 107, 124, 78
2023/07/02 01:01:16.871, 102, 113, 76
2023/07/02 01:01:17.991, 105, 121, 77
2023/07/02 01:01:19.127, 109, 121, 79
2023/07/02 01:01:20.247, 109, 142, 79
2023/07/02 01:01:21.383, 108, 137, 76
2023/07/02 01:01:22.519, 104, 119, 81
2023/07/02 01:01:23.638, 105, 116, 79
2023/07/02 01:01:24.774, 106, 115, 74
2023/07/02 01:01:25.910, 102, 113, 76
2023/07/02 01:01:27.030, 132, 116, 77
2023/07/02 01:01:28.166, 103, 121, 75
2023/07/02 01:01:29.286, 102, 117, 75
2023/07/02 01:01:30.421, 102, 118, 80
2023/07/02 01:01:31.542, 105, 119, 80
2023/07/02 01:01:32.678, 105, 119, 77
2023/07/02 01:01:33.814, 102, 143, 80
2023/07/02 01:01:34.934, 102, 113, 77
2023/07/02 01:01:36.070, 102, 113, 75
2023/07/02 01:01:37.190, 103, 116, 79
2023/07/02 01:01:38.326, 124, 116, 80
2023/07/02 01:01:39.461, 105, 126, 77
2023/07/02 01:01:40.581, 108, 117, 75
2023/07/02 01:01:41.717, 108, 109, 80
2023/07/02 01:01:42.837, 101, 113, 76
2023/07/02 01:01:43.973, 102, 114, 76
2023/07/02 01:01:45.109, 102, 109, 75
2023/07/02 01:01:46.229, 103, 109, 73
2023/07/02 01:01:47.365, 101, 109, 76
2023/07/02 01:01:48.484, 100, 109, 82
2023/07/02 01:01:49.621, 103, 114, 75
2023/07/02 01:01:50.757, 102, 112, 74
2023/07/02 01:01:51.877, 101, 106, 78
2023/07/02 01:01:53.013, 103, 110, 73
2023/07/02 01:01:54.133, 105, 111, 84
2023/07/02 01:01:55.269, 99, 112, 75
2023/07/02 01:01:56.405, 102, 106, 77
2023/07/02 01:01:57.525, 102, 116, 77
2023/07/02 01:01:58.660, 104, 117, 75
2023/07/02 01:01:59.780, 101, 114, 72
2023/07/02 01:02:00.916, 102, 111, 77
2023/07/02 01:02:02.052, 102, 108, 83
2023/07/02 01:02:03.172, 98, 112, 73
2023/07/02 01:02:04.308, 104, 104, 76
2023/07/02 01:02:05.428, 103, 110, 76
2023/07/02 01:02:06.564, 103, 109, 71
2023/07/02 01:02:07.700, 104, 120, 75
2023/07/02 01:02:08.819, 102, 105, 74
2023/07/02 01:02:09.956, 105, 106, 72
2023/07/02 01:02:11.076, 103, 105, 76
2023/07/02 01:02:12.212, 106, 108, 73
2023/07/02 01:02:13.347, 101, 108, 75
2023/07/02 01:02:14.467, 98, 111, 69
2023/07/02 01:02:15.604, 99, 104, 74
2023/07/02 01:02:16.724, 102, 107, 76
2023/07/02 01:02:17.859, 103, 106, 74
2023/07/02 01:02:18.995, 101, 106, 72
2023/07/02 01:02:20.115, 98, 104, 76
2023/07/02 01:02:21.251, 102, 121, 72
2023/07/02 01:02:22.371, 99, 107, 74
2023/07/02 01:02:23.507, 101, 139, 75
2023/07/02 01:02:24.643, 105, 109, 75
2023/07/02 01:02:25.763, 104, 105, 74
2023/07/02 01:02:26.899, 105, 108, 71
2023/07/02 01:02:28.019, 101, 102, 76
2023/07/02 01:02:29.155, 101, 105, 84
2023/07/02 01:02:30.275, 98, 104, 75
2023/07/02 01:02:31.411, 101, 103, 73
2023/07/02 01:02:32.546, 99, 106, 76
2023/07/02 01:02:33.666, 102, 104, 77
2023/07/02 01:02:34.802, 99, 105, 73
2023/07/02 01:02:35.922, 97, 104, 75
2023/07/02 01:02:37.058, 97, 104, 73
2023/07/02 01:02:38.178, 103, 112, 78
2023/07/02 01:02:39.314, 100, 104, 73
2023/07/02 01:02:40.450, 105, 103, 77
2023/07/02 01:02:41.570, 126, 103, 75
2023/07/02 01:02:42.705, 98, 104, 78
2023/07/02 01:02:43.826, 98, 104, 76
2023/07/02 01:02:44.962, 97, 100, 77
2023/07/02 01:02:46.081, 101, 99, 76
2023/07/02 01:02:47.218, 102, 100, 71
2023/07/02 01:02:48.354, 99, 102, 71
2023/07/02 01:02:49.474, 99, 100, 74
2023/07/02 01:02:50.609, 98, 101, 69
2023/07/02 01:02:51.729, 97, 100, 72
2023/07/02 01:02:52.865, 101, 100, 72
2023/07/02 01:02:53.985, 104, 101, 73
2023/07/02 01:02:55.121, 99, 100, 75
2023/07/02 01:02:56.257, 102, 101, 74
2023/07/02 01:02:57.377, 100, 102, 72
2023/07/02 01:02:58.513, 103, 104, 77
2023/07/02 01:02:59.633, 102, 107, 72
2023/07/02 01:03:00.769, 99, 101, 74
2023/07/02 01:03:01.905, 100, 101, 74
2023/07/02 01:03:03.025, 97, 102, 74
2023/07/02 01:03:04.160, 99, 99, 74
2023/07/02 01:03:05.281, 97, 100, 79
2023/07/02 01:03:06.417, 97, 98, 76
2023/07/02 01:03:07.536, 99, 112, 77
2023/07/02 01:03:08.672, 96, 117, 74
2023/07/02 01:03:09.792, 102, 99, 73
2023/07/02 01:03:10.928, 93, 100, 70
2023/07/02 01:03:12.049, 96, 96, 78
2023/07/02 01:03:13.184, 101, 101, 82
2023/07/02 01:03:14.320, 98, 104, 70
2023/07/02 01:03:15.440, 97, 103, 73
2023/07/02 01:03:16.576, 93, 97, 76
2023/07/02 01:03:17.696, 99, 110, 73
2023/07/02 01:03:18.832, 99, 101, 77
2023/07/02 01:03:19.951, 96, 103, 74
2023/07/02 01:03:21.088, 95, 100, 71
2023/07/02 01:03:22.207, 97, 99, 76
2023/07/02 01:03:23.344, 96, 98, 72
2023/07/02 01:03:24.463, 98, 99, 73
2023/07/02 01:03:25.599, 99, 101, 72
2023/07/02 01:03:26.720, 98, 102, 74
2023/07/02 01:03:27.855, 95, 97, 78
2023/07/02 01:03:28.975, 97, 101, 79
2023/07/02 01:03:30.111, 95, 102, 73
2023/07/02 01:03:31.231, 93, 98, 71
2023/07/02 01:03:32.367, 96, 98, 68
2023/07/02 01:03:33.503, 97, 100, 71
2023/07/02 01:03:34.623, 96, 99, 72
2023/07/02 01:03:35.759, 98, 101, 71
2023/07/02 01:03:36.879, 97, 99, 72
2023/07/02 01:03:38.015, 95, 102, 73
2023/07/02 01:03:39.135, 98, 99, 71
2023/07/02 01:03:40.270, 98, 98, 72
2023/07/02 01:03:41.390, 97, 101, 73
2023/07/02 01:03:42.526, 95, 101, 71
2023/07/02 01:03:43.646, 100, 101, 71
2023/07/02 01:03:44.782, 99, 100, 73
2023/07/02 01:03:45.902, 99, 99, 75
2023/07/02 01:03:47.038, 96, 97, 78
2023/07/02 01:03:48.158, 93, 100, 71
2023/07/02 01:03:49.294, 93, 100, 76
2023/07/02 01:03:50.414, 96, 95, 72
2023/07/02 01:03:51.550, 94, 96, 73
2023/07/02 01:03:52.686, 93, 103, 70
2023/07/02 01:03:53.805, 94, 100, 67
2023/07/02 01:03:54.942, 95, 98, 70
2023/07/02 01:03:56.062, 95, 98, 73
2023/07/02 01:03:57.198, 95, 95, 73
2023/07/02 01:03:58.317, 96, 95, 76
2023/07/02 01:03:59.453, 92, 97, 73
2023/07/02 01:04:00.573, 97, 99, 72
2023/07/02 01:04:01.709, 95, 94, 73
2023/07/02 01:04:02.829, 95, 99, 74
2023/07/02 01:04:03.965, 94, 100, 74
2023/07/02 01:04:05.085, 94, 96, 74
2023/07/02 01:04:06.221, 94, 96, 69
2023/07/02 01:04:07.341, 94, 94, 77
2023/07/02 01:04:08.477, 96, 98, 71
2023/07/02 01:04:09.597, 96, 95, 72
2023/07/02 01:04:10.733, 98, 96, 71
2023/07/02 01:04:11.852, 98, 95, 69
2023/07/02 01:04:12.989, 94, 98, 72
2023/07/02 01:04:14.109, 98, 105, 68
2023/07/02 01:04:15.245, 93, 95, 70
2023/07/02 01:04:16.364, 109, 98, 79
2023/07/02 01:04:17.500, 93, 98, 70
2023/07/02 01:04:18.620, 96, 97, 70
2023/07/02 01:04:19.756, 95, 97, 75
2023/07/02 01:04:20.876, 98, 96, 71
2023/07/02 01:04:22.012, 93, 93, 76
2023/07/02 01:04:23.132, 94, 97, 66
2023/07/02 01:04:24.268, 92, 93, 76
2023/07/02 01:04:25.388, 93, 94, 72
2023/07/02 01:04:26.524, 91, 96, 76
2023/07/02 01:04:27.644, 94, 94, 69
2023/07/02 01:04:28.780, 93, 97, 72
2023/07/02 01:04:29.900, 94, 97, 73
2023/07/02 01:04:31.036, 94, 97, 74
2023/07/02 01:04:32.155, 91, 98, 70
2023/07/02 01:04:33.291, 92, 95, 74
2023/07/02 01:04:34.411, 93, 99, 79
2023/07/02 01:04:35.547, 94, 98, 67
2023/07/02 01:04:36.667, 92, 101, 72
2023/07/02 01:04:37.803, 92, 95, 74
2023/07/02 01:04:38.923, 95, 93, 73
2023/07/02 01:04:40.059, 95, 96, 67
2023/07/02 01:04:41.179, 92, 96, 73
2023/07/02 01:04:42.315, 94, 93, 71
2023/07/02 01:04:43.434, 95, 94, 70
2023/07/02 01:04:44.570, 91, 95, 71
2023/07/02 01:04:45.691, 90, 96, 73
2023/07/02 01:04:46.827, 92, 95, 69
2023/07/02 01:04:47.946, 88, 97, 71
2023/07/02 01:04:49.082, 92, 97, 72
2023/07/02 01:04:50.202, 94, 93, 74
2023/07/02 01:04:51.338, 94, 90, 72
2023/07/02 01:04:52.458, 100, 93, 73
2023/07/02 01:04:53.594, 96, 96, 74
2023/07/02 01:04:54.714, 94, 94, 75
2023/07/02 01:04:55.850, 92, 92, 72
2023/07/02 01:04:56.970, 92, 93, 72
2023/07/02 01:04:58.106, 95, 92, 70
2023/07/02 01:04:59.226, 92, 95, 73
2023/07/02 01:05:00.362, 94, 95, 74
2023/07/02 01:05:01.481, 89, 92, 71
2023/07/02 01:05:02.618, 92, 93, 72
2023/07/02 01:05:03.738, 91, 91, 71
2023/07/02 01:05:04.873, 91, 92, 77
2023/07/02 01:05:05.993, 93, 91, 72
2023/07/02 01:05:07.129, 95, 91, 69
2023/07/02 01:05:08.249, 92, 91, 67
2023/07/02 01:05:09.385, 94, 93, 70
2023/07/02 01:05:10.505, 93, 93, 71
2023/07/02 01:05:11.641, 93, 95, 70
2023/07/02 01:05:12.761, 92, 94, 74
2023/07/02 01:05:13.897, 91, 92, 73
2023/07/02 01:05:15.016, 93, 93, 76
2023/07/02 01:05:16.153, 92, 96, 73
2023/07/02 01:05:17.273, 91, 95, 73
2023/07/02 01:05:18.409, 90, 94, 73
2023/07/02 01:05:19.529, 93, 93, 72
2023/07/02 01:05:20.665, 93, 92, 74
2023/07/02 01:05:21.785, 93, 91, 74
2023/07/02 01:05:22.920, 94, 91, 71
2023/07/02 01:05:24.056, 91, 91, 71
2023/07/02 01:05:25.176, 92, 90, 68
2023/07/02 01:05:26.312, 92, 94, 74
2023/07/02 01:05:27.432, 93, 91, 69
2023/07/02 01:05:28.568, 89, 94, 68
2023/07/02 01:05:29.688, 93, 92, 74
2023/07/02 01:05:30.808, 95, 90, 73
2023/07/02 01:05:31.944, 92, 94, 73
2023/07/02 01:05:33.063, 91, 93, 68
2023/07/02 01:05:34.200, 91, 91, 68
2023/07/02 01:05:35.319, 93, 97, 69
2023/07/02 01:05:36.456, 93, 89, 68
2023/07/02 01:05:37.575, 95, 89, 75
2023/07/02 01:05:38.711, 92, 91, 72
2023/07/02 01:05:39.832, 89, 91, 70
2023/07/02 01:05:40.967, 91, 94, 68
2023/07/02 01:05:42.087, 93, 93, 75
2023/07/02 01:05:43.223, 97, 88, 75
2023/07/02 01:05:44.343, 96, 91, 73
2023/07/02 01:05:45.479, 86, 91, 74
2023/07/02 01:05:46.598, 91, 94, 78
2023/07/02 01:05:47.735, 90, 92, 76
2023/07/02 01:05:48.855, 91, 92, 84
2023/07/02 01:05:49.991, 93, 93, 87
2023/07/02 01:05:51.110, 93, 92, 87
2023/07/02 01:05:52.247, 93, 91, 88
2023/07/02 01:05:53.367, 93, 92, 89
2023/07/02 01:05:54.503, 91, 90, 84
2023/07/02 01:05:55.623, 90, 89, 87
2023/07/02 01:05:56.758, 91, 91, 85
2023/07/02 01:05:57.878, 92, 94, 88
2023/07/02 01:05:59.014, 89, 91, 85
2023/07/02 01:06:00.133, 89, 92, 88
2023/07/02 01:06:01.270, 90, 90, 88
2023/07/02 01:06:02.390, 92, 89, 88
2023/07/02 01:06:03.526, 90, 91, 87
2023/07/02 01:06:04.646, 91, 91, 86
2023/07/02 01:06:05.782, 94, 89, 83
2023/07/02 01:06:06.918, 91, 87, 89
2023/07/02 01:06:08.038, 89, 92, 90
2023/07/02 01:06:09.174, 91, 88, 93
2023/07/02 01:06:10.294, 91, 89, 89
2023/07/02 01:06:11.429, 92, 89, 88
2023/07/02 01:06:12.550, 93, 92, 85
2023/07/02 01:06:13.686, 90, 90, 90
2023/07/02 01:06:14.805, 90, 90, 90
2023/07/02 01:06:15.941, 93, 91, 91
2023/07/02 01:06:17.061, 89, 90, 91
2023/07/02 01:06:18.197, 90, 93, 91
2023/07/02 01:06:19.316, 90, 88, 92
2023/07/02 01:06:20.453, 91, 89, 94
2023/07/02 01:06:21.572, 92, 93, 88
2023/07/02 01:06:22.709, 92, 91, 89
2023/07/02 01:06:23.829, 90, 92, 90
2023/07/02 01:06:24.965, 92, 91, 94
2023/07/02 01:06:26.085, 92, 94, 89
2023/07/02 01:06:27.221, 87, 93, 91
2023/07/02 01:06:28.340, 92, 90, 90
2023/07/02 01:06:29.477, 92, 91, 89
2023/07/02 01:06:30.597, 90, 89, 92
2023/07/02 01:06:31.732, 92, 89, 88
2023/07/02 01:06:32.852, 87, 90, 90
2023/07/02 01:06:33.972, 87, 89, 93
2023/07/02 01:06:35.108, 90, 92, 89
2023/07/02 01:06:36.228, 91, 90, 95
2023/07/02 01:06:37.364, 91, 87, 90
2023/07/02 01:06:38.484, 93, 93, 91
2023/07/02 01:06:39.620, 92, 90, 90
2023/07/02 01:06:40.740, 91, 86, 90
2023/07/02 01:06:41.876, 91, 87, 92
2023/07/02 01:06:42.996, 91, 93, 91
2023/07/02 01:06:44.132, 91, 90, 89
2023/07/02 01:06:45.251, 92, 93, 89
2023/07/02 01:06:46.388, 89, 94, 87
2023/07/02 01:06:47.508, 93, 89, 91
2023/07/02 01:06:48.643, 92, 92, 89
2023/07/02 01:06:49.763, 90, 89, 88
2023/07/02 01:06:50.899, 88, 92, 87
2023/07/02 01:06:52.019, 92, 94, 89
2023/07/02 01:06:53.155, 92, 90, 89
2023/07/02 01:06:54.275, 90, 90, 88
2023/07/02 01:06:55.411, 90, 88, 90
2023/07/02 01:06:56.531, 93, 92, 91
2023/07/02 01:06:57.667, 92, 89, 88
2023/07/02 01:06:58.787, 90, 87, 86
2023/07/02 01:06:59.922, 89, 90, 90
2023/07/02 01:07:01.059, 89, 89, 82
2023/07/02 01:07:02.179, 91, 86, 68
2023/07/02 01:07:03.314, 91, 90, 71
2023/07/02 01:07:04.435, 91, 88, 72
2023/07/02 01:07:05.570, 89, 86, 70
2023/07/02 01:07:06.690, 90, 89, 73
2023/07/02 01:07:07.826, 92, 90, 67
2023/07/02 01:07:08.946, 92, 86, 71
2023/07/02 01:07:10.082, 91, 90, 67
2023/07/02 01:07:11.202, 90, 91, 73
2023/07/02 01:07:12.338, 86, 89, 70
2023/07/02 01:07:13.458, 90, 89, 73
2023/07/02 01:07:14.594, 91, 89, 70
2023/07/02 01:07:15.714, 89, 87, 71
2023/07/02 01:07:16.850, 88, 92, 73
2023/07/02 01:07:17.970, 89, 89, 71
2023/07/02 01:07:19.106, 92, 89, 65
2023/07/02 01:07:20.226, 90, 90, 74
2023/07/02 01:07:21.361, 88, 90, 71
2023/07/02 01:07:22.482, 93, 87, 69
2023/07/02 01:07:23.617, 90, 89, 68
2023/07/02 01:07:24.737, 94, 88, 71
2023/07/02 01:07:25.873, 88, 89, 73
2023/07/02 01:07:26.993, 88, 89, 72
2023/07/02 01:07:28.128, 88, 91, 72
2023/07/02 01:07:29.249, 89, 87, 74
2023/07/02 01:07:30.385, 86, 88, 66
2023/07/02 01:07:31.504, 93, 91, 72
2023/07/02 01:07:32.641, 89, 93, 68
2023/07/02 01:07:33.761, 92, 87, 69
2023/07/02 01:07:34.881, 87, 87, 69
2023/07/02 01:07:36.017, 89, 89, 68
2023/07/02 01:07:37.137, 92, 90, 68
2023/07/02 01:07:38.273, 91, 91, 73
2023/07/02 01:07:39.392, 86, 92, 71
2023/07/02 01:07:40.528, 89, 90, 69
2023/07/02 01:07:41.648, 89, 87, 67
2023/07/02 01:07:42.784, 91, 91, 71
2023/07/02 01:07:43.904, 90, 88, 73
2023/07/02 01:07:45.039, 91, 89, 67
2023/07/02 01:07:46.160, 94, 88, 66
2023/07/02 01:07:47.296, 90, 87, 72
2023/07/02 01:07:48.416, 89, 85, 72
2023/07/02 01:07:49.551, 90, 90, 68
2023/07/02 01:07:50.672, 93, 88, 66
2023/07/02 01:07:51.808, 91, 91, 68
2023/07/02 01:07:52.927, 91, 89, 67
2023/07/02 01:07:54.064, 91, 89, 70
2023/07/02 01:07:55.183, 90, 88, 74
2023/07/02 01:07:56.319, 93, 89, 70
2023/07/02 01:07:57.439, 90, 89, 70
2023/07/02 01:07:58.575, 88, 87, 70
2023/07/02 01:07:59.695, 90, 87, 72
2023/07/02 01:08:00.831, 90, 88, 71
2023/07/02 01:08:01.950, 89, 88, 67
2023/07/02 01:08:03.087, 90, 89, 71
2023/07/02 01:08:04.223, 89, 89, 66
2023/07/02 01:08:05.343, 92, 90, 71
2023/07/02 01:08:06.479, 88, 85, 69
2023/07/02 01:08:07.599, 91, 89, 70
2023/07/02 01:08:08.735, 88, 88, 69
2023/07/02 01:08:09.855, 90, 88, 67
2023/07/02 01:08:10.991, 88, 90, 70
2023/07/02 01:08:12.110, 93, 85, 66
2023/07/02 01:08:13.246, 87, 89, 71
2023/07/02 01:08:14.366, 88, 93, 68
2023/07/02 01:08:15.502, 88, 90, 67
2023/07/02 01:08:16.622, 89, 87, 66
2023/07/02 01:08:17.758, 89, 87, 71
2023/07/02 01:08:18.878, 90, 88, 67
2023/07/02 01:08:20.014, 87, 90, 66
2023/07/02 01:08:21.134, 89, 92, 69
2023/07/02 01:08:22.270, 88, 96, 70
2023/07/02 01:08:23.390, 90, 89, 68
2023/07/02 01:08:24.525, 89, 86, 70
2023/07/02 01:08:25.646, 89, 87, 68
2023/07/02 01:08:26.782, 87, 85, 68
2023/07/02 01:08:27.902, 89, 89, 69
2023/07/02 01:08:29.037, 91, 88, 68
2023/07/02 01:08:30.158, 93, 86, 73
2023/07/02 01:08:31.293, 90, 91, 68
2023/07/02 01:08:32.413, 88, 84, 69
2023/07/02 01:08:33.533, 90, 86, 74
2023/07/02 01:08:34.669, 93, 87, 66
2023/07/02 01:08:35.789, 91, 87, 66
2023/07/02 01:08:36.925, 86, 89, 73
2023/07/02 01:08:38.045, 92, 86, 68
2023/07/02 01:08:39.181, 89, 86, 72
2023/07/02 01:08:40.301, 89, 83, 67
2023/07/02 01:08:41.437, 89, 85, 70
2023/07/02 01:08:42.557, 89, 91, 74
2023/07/02 01:08:43.692, 88, 88, 67
2023/07/02 01:08:44.813, 90, 86, 74
2023/07/02 01:08:45.949, 89, 91, 68
2023/07/02 01:08:47.068, 90, 90, 74
2023/07/02 01:08:48.204, 90, 87, 70
2023/07/02 01:08:49.324, 92, 90, 68
2023/07/02 01:08:50.460, 89, 86, 68
2023/07/02 01:08:51.580, 93, 90, 68
2023/07/02 01:08:52.716, 88, 89, 68
2023/07/02 01:08:53.836, 91, 89, 67
2023/07/02 01:08:54.972, 86, 87, 68
2023/07/02 01:08:56.092, 89, 88, 68
2023/07/02 01:08:57.228, 88, 87, 67
2023/07/02 01:08:58.348, 89, 89, 70
2023/07/02 01:08:59.484, 90, 88, 66
2023/07/02 01:09:00.604, 93, 85, 65
2023/07/02 01:09:01.740, 92, 90, 67
2023/07/02 01:09:02.860, 90, 91, 69
2023/07/02 01:09:03.995, 89, 84, 69
2023/07/02 01:09:05.115, 90, 88, 65
2023/07/02 01:09:06.251, 91, 92, 63
2023/07/02 01:09:07.371, 89, 96, 68
2023/07/02 01:09:08.507, 89, 89, 70
2023/07/02 01:09:09.627, 90, 87, 68
2023/07/02 01:09:10.763, 89, 88, 68
2023/07/02 01:09:11.883, 89, 89, 69
2023/07/02 01:09:13.019, 91, 89, 66
2023/07/02 01:09:14.139, 89, 88, 64
2023/07/02 01:09:15.275, 88, 88, 69
2023/07/02 01:09:16.411, 89, 90, 65
2023/07/02 01:09:17.531, 90, 86, 64
2023/07/02 01:09:18.667, 92, 84, 68
2023/07/02 01:09:19.787, 91, 89, 64
2023/07/02 01:09:20.922, 88, 87, 69
2023/07/02 01:09:22.042, 90, 88, 67
2023/07/02 01:09:23.178, 92, 90, 68
2023/07/02 01:09:24.298, 90, 88, 65
2023/07/02 01:09:25.434, 91, 87, 68
2023/07/02 01:09:26.554, 90, 87, 71
2023/07/02 01:09:27.690, 89, 88, 62
2023/07/02 01:09:28.810, 84, 89, 68
2023/07/02 01:09:29.930, 87, 86, 69
2023/07/02 01:09:31.066, 88, 85, 76
2023/07/02 01:09:32.185, 93, 86, 67
2023/07/02 01:09:33.322, 86, 87, 68
2023/07/02 01:09:34.442, 88, 86, 71
2023/07/02 01:09:35.578, 87, 84, 72
2023/07/02 01:09:36.697, 91, 87, 67
2023/07/02 01:09:37.833, 92, 86, 64
2023/07/02 01:09:38.953, 90, 90, 67
2023/07/02 01:09:40.089, 88, 84, 65
2023/07/02 01:09:41.209, 87, 86, 68
2023/07/02 01:09:42.345, 89, 91, 64
2023/07/02 01:09:43.465, 89, 87, 68
2023/07/02 01:09:44.601, 88, 87, 61
2023/07/02 01:09:45.720, 89, 86, 67
2023/07/02 01:09:46.857, 88, 90, 64
2023/07/02 01:09:47.977, 88, 88, 66
2023/07/02 01:09:49.113, 90, 88, 71
2023/07/02 01:09:50.233, 88, 86, 68
2023/07/02 01:09:51.369, 86, 87, 69
2023/07/02 01:09:52.489, 89, 87, 67
2023/07/02 01:09:53.624, 88, 87, 67
2023/07/02 01:09:54.744, 87, 86, 68
2023/07/02 01:09:55.880, 90, 87, 66
2023/07/02 01:09:56.000, 86, 89, 65
2023/07/02 01:09:58.136, 89, 87, 67
2023/07/02 01:09:59.256, 90, 84, 67
2023/07/02 01:10:00.392, 91, 90, 65
2023/07/02 01:10:01.512, 91, 85, 63
2023/07/02 01:10:02.648, 89, 86, 70
2023/07/02 01:10:03.768, 91, 86, 68
2023/07/02 01:10:04.904, 84, 89, 66
2023/07/02 01:10:06.024, 85, 84, 66
2023/07/02 01:10:07.160, 92, 86, 69
2023/07/02 01:10:08.280, 87, 87, 68
2023/07/02 01:10:09.416, 87, 89, 67
2023/07/02 01:10:10.536, 85, 85, 65
2023/07/02 01:10:11.672, 89, 89, 65
2023/07/02 01:10:12.791, 86, 87, 68
2023/07/02 01:10:13.927, 88, 87, 69
2023/07/02 01:10:15.047, 88, 86, 67
2023/07/02 01:10:16.183, 85, 86, 69
2023/07/02 01:10:17.302, 87, 89, 68
2023/07/02 01:10:18.439, 87, 85, 67
2023/07/02 01:10:19.558, 87, 91, 66
2023/07/02 01:10:20.695, 88, 86, 64
2023/07/02 01:10:21.815, 88, 87, 65
2023/07/02 01:10:22.951, 90, 86, 64
2023/07/02 01:10:24.070, 91, 85, 62
2023/07/02 01:10:25.207, 85, 88, 68
2023/07/02 01:10:26.327, 89, 88, 71
2023/07/02 01:10:27.463, 88, 88, 67
2023/07/02 01:10:28.582, 87, 86, 67
2023/07/02 01:10:29.718, 89, 94, 72
2023/07/02 01:10:30.838, 90, 88, 71
2023/07/02 01:10:31.974, 89, 91, 68
2023/07/02 01:10:33.094, 91, 89, 66
2023/07/02 01:10:34.230, 90, 90, 66
2023/07/02 01:10:35.350, 91, 88, 64
2023/07/02 01:10:36.486, 87, 86, 65
2023/07/02 01:10:37.606, 85, 86, 67
2023/07/02 01:10:38.742, 90, 85, 69
2023/07/02 01:10:39.862, 88, 87, 68
2023/07/02 01:10:40.998, 88, 82, 68
2023/07/02 01:10:42.117, 90, 84, 69
2023/07/02 01:10:43.254, 90, 85, 64
2023/07/02 01:10:44.373, 89, 86, 67
2023/07/02 01:10:45.510, 90, 92, 66
2023/07/02 01:10:46.630, 82, 84, 63
2023/07/02 01:10:47.765, 87, 84, 66
2023/07/02 01:10:48.885, 89, 84, 65
2023/07/02 01:10:50.022, 85, 92, 64
2023/07/02 01:10:51.140, 88, 87, 68
2023/07/02 01:10:52.277, 88, 84, 66
2023/07/02 01:10:53.397, 89, 83, 64
2023/07/02 01:10:54.533, 90, 86, 67
2023/07/02 01:10:55.653, 87, 88, 65
2023/07/02 01:10:56.789, 89, 83, 65
2023/07/02 01:10:57.908, 88, 86, 70
2023/07/02 01:10:59.045, 89, 87, 65
2023/07/02 01:11:00.165, 91, 86, 63
2023/07/02 01:11:01.301, 90, 88, 65
2023/07/02 01:11:02.421, 85, 86, 68
2023/07/02 01:11:03.556, 86, 85, 64
2023/07/02 01:11:04.676, 89, 84, 64
2023/07/02 01:11:05.812, 89, 87, 66
2023/07/02 01:11:06.932, 88, 88, 67
2023/07/02 01:11:08.068, 86, 86, 65
2023/07/02 01:11:09.188, 87, 87, 64
2023/07/02 01:11:10.324, 86, 90, 65
2023/07/02 01:11:11.444, 86, 87, 67
2023/07/02 01:11:12.580, 88, 89, 64
2023/07/02 01:11:13.700, 88, 88, 64
2023/07/02 01:11:14.836, 87, 85, 70
2023/07/02 01:11:15.955, 89, 86, 67
2023/07/02 01:11:17.092, 91, 84, 67
2023/07/02 01:11:18.212, 86, 86, 67
2023/07/02 01:11:19.348, 88, 88, 62
2023/07/02 01:11:20.468, 87, 84, 67
2023/07/02 01:11:21.603, 86, 85, 67
2023/07/02 01:11:22.723, 86, 87, 68
2023/07/02 01:11:23.859, 86, 86, 70
2023/07/02 01:11:24.979, 88, 85, 65
2023/07/02 01:11:26.115, 85, 85, 69
2023/07/02 01:11:27.235, 88, 86, 67
2023/07/02 01:11:28.371, 87, 88, 67
2023/07/02 01:11:29.491, 88, 84, 66
2023/07/02 01:11:30.627, 87, 84, 66
2023/07/02 01:11:31.747, 83, 86, 67
2023/07/02 01:11:32.883, 89, 89, 66
2023/07/02 01:11:34.003, 87, 85, 67
2023/07/02 01:11:35.138, 87, 87, 66
2023/07/02 01:11:36.259, 86, 86, 64
2023/07/02 01:11:37.394, 88, 84, 70
2023/07/02 01:11:38.514, 92, 89, 68
2023/07/02 01:11:39.650, 85, 85, 65
2023/07/02 01:11:40.770, 87, 87, 69
2023/07/02 01:11:41.906, 87, 86, 65
2023/07/02 01:11:43.026, 83, 88, 68
2023/07/02 01:11:44.162, 88, 87, 68
2023/07/02 01:11:45.281, 87, 87, 69
2023/07/02 01:11:46.418, 88, 87, 67
2023/07/02 01:11:47.538, 91, 87, 64
2023/07/02 01:11:48.674, 86, 88, 67
2023/07/02 01:11:49.794, 88, 87, 70
2023/07/02 01:11:50.930, 87, 87, 64
2023/07/02 01:11:52.049, 91, 85, 67
2023/07/02 01:11:53.186, 88, 88, 66
2023/07/02 01:11:54.305, 90, 85, 68
2023/07/02 01:11:55.441, 85, 86, 65
2023/07/02 01:11:56.561, 86, 82, 68
2023/07/02 01:11:57.697, 88, 88, 68
2023/07/02 01:11:58.817, 87, 88, 65